,,,PA_Meas_PMT16A,,PR_Meas_QMR101_102,,RH_Meas_QMH101,,SR_Meas_QMS101,,TA_Meas_QMH101,,GenWind,,GenWind,
date,time,status,PA,status,PR,status,RH,status,SR,status,TA,status,DirAvg,status,SpdAvg,
2014-12-04, 00:00:04,VALID,1011.45,VALID,0,INVALID,120.891,VALID,0.112112,VALID,24.0996,VALID,153,VALID,0,
2014-12-04, 00:01:04,VALID,1011.4,VALID,0,INVALID,121.097,VALID,0.112112,VALID,24.1209,VALID,153,VALID,0,
2014-12-04, 00:02:04,VALID,1011.4,VALID,0,INVALID,121.379,VALID,0.112112,VALID,24.1209,VALID,153,VALID,0,
2014-12-04, 00:03:04,VALID,1011.39,VALID,0,INVALID,121.783,VALID,0.112112,VALID,24.1404,VALID,153,VALID,0,
2014-12-04, 00:04:04,VALID,1011.37,VALID,0,INVALID,122.126,VALID,0.112112,VALID,24.1404,VALID,153,VALID,0,
2014-12-04, 00:05:04,VALID,1011.32,VALID,0,INVALID,122.485,VALID,0.112112,VALID,24.1404,VALID,153,VALID,0,
2014-12-04, 00:06:04,VALID,1011.33,VALID,0,INVALID,122.599,VALID,0.112112,VALID,24.1404,VALID,153,VALID,0,
2014-12-04, 00:07:04,VALID,1011.3,VALID,0,INVALID,122.82,VALID,0.112112,VALID,24.1599,VALID,153,VALID,0,
2014-12-04, 00:08:04,VALID,1011.29,VALID,0,INVALID,122.981,VALID,0.112112,VALID,24.1404,VALID,153,VALID,0,
2014-12-04, 00:09:04,VALID,1011.26,VALID,0,INVALID,123.103,VALID,0.112112,VALID,24.1404,VALID,153,VALID,0,
2014-12-04, 00:10:04,VALID,1011.25,VALID,0,INVALID,123.179,VALID,0.112112,VALID,24.1404,VALID,153,VALID,0,
2014-12-04, 00:11:04,VALID,1011.24,VALID,0,INVALID,123.339,VALID,0.112112,VALID,24.1404,VALID,153,VALID,0,
2014-12-04, 00:12:04,VALID,1011.21,VALID,0,INVALID,123.438,VALID,0.112112,VALID,24.1404,VALID,153,VALID,0,
2014-12-04, 00:13:04,VALID,1011.19,VALID,0,INVALID,123.491,VALID,0.112112,VALID,24.1599,VALID,153,VALID,0,
2014-12-04, 00:14:04,VALID,1011.18,VALID,0,INVALID,123.56,VALID,0.112112,VALID,24.1404,VALID,153,VALID,0,
2014-12-04, 00:15:04,VALID,1011.17,VALID,0,INVALID,123.598,VALID,0,VALID,24.1599,VALID,153,VALID,0,
2014-12-04, 00:16:04,VALID,1011.17,VALID,0,INVALID,123.728,VALID,0.112112,VALID,24.1793,VALID,153,VALID,0,
2014-12-04, 00:17:04,VALID,1011.14,VALID,0,INVALID,123.957,VALID,0.112112,VALID,24.1793,VALID,153,VALID,0,
2014-12-04, 00:18:04,VALID,1011.17,VALID,0,INVALID,124.521,VALID,0.112112,VALID,24.2183,VALID,153,VALID,0,
2014-12-04, 00:19:04,VALID,1011.13,VALID,0,INVALID,124.811,VALID,0.112112,VALID,24.1988,VALID,153,VALID,0,
2014-12-04, 00:20:04,VALID,1011.14,VALID,0,INVALID,124.963,VALID,0.112112,VALID,24.1988,VALID,153,VALID,0,
2014-12-04, 00:21:04,VALID,1011.13,VALID,0,INVALID,125.2,VALID,0,VALID,24.2183,VALID,153,VALID,0,
2014-12-04, 00:22:04,VALID,1011.15,VALID,0,INVALID,125.878,VALID,0.112112,VALID,24.2183,VALID,153,VALID,0,
2014-12-04, 00:23:04,VALID,1011.13,VALID,0,INVALID,127.182,VALID,0.112112,VALID,24.2183,VALID,153,VALID,0,
2014-12-04, 00:24:04,VALID,1011.15,VALID,0,INVALID,127.274,VALID,0.112112,VALID,24.2183,VALID,153,VALID,0,
2014-12-04, 00:25:04,VALID,1011.15,VALID,0,INVALID,127.411,VALID,0.112112,VALID,24.2183,VALID,153,VALID,0,
2014-12-04, 00:26:04,VALID,1011.14,VALID,0,INVALID,127.632,VALID,0.112112,VALID,24.2183,VALID,153,VALID,0,
2014-12-04, 00:27:04,VALID,1011.14,VALID,0,INVALID,127.403,VALID,0.112112,VALID,24.1793,VALID,153,VALID,0,
2014-12-04, 00:28:04,VALID,1011.14,VALID,0,INVALID,127.266,VALID,0.112112,VALID,24.1793,VALID,153,VALID,0,
2014-12-04, 00:29:04,VALID,1011.12,VALID,0,INVALID,127.312,VALID,0.112112,VALID,24.1793,VALID,153,VALID,0,
2014-12-04, 00:30:04,VALID,1011.12,VALID,0,INVALID,127.487,VALID,0.112112,VALID,24.1988,VALID,153,VALID,0,
2014-12-04, 00:31:04,VALID,1011.11,VALID,0,INVALID,127.869,VALID,0.112112,VALID,24.1988,VALID,153,VALID,0,
2014-12-04, 00:32:04,VALID,1011.08,VALID,0,INVALID,127.945,VALID,0.112112,VALID,24.2183,VALID,153,VALID,0,
2014-12-04, 00:33:04,VALID,1011.04,VALID,0,INVALID,128.075,VALID,0.112112,VALID,24.1988,VALID,153,VALID,0,
2014-12-04, 00:34:04,VALID,1011.01,VALID,0,INVALID,128.021,VALID,0.112112,VALID,24.1988,VALID,153,VALID,0,
2014-12-04, 00:35:04,VALID,1011,VALID,0,INVALID,127.983,VALID,0.112112,VALID,24.1793,VALID,153,VALID,0,
2014-12-04, 00:36:04,VALID,1010.96,VALID,0,INVALID,127.968,VALID,0.112112,VALID,24.1793,VALID,153,VALID,0,
2014-12-04, 00:37:04,VALID,1010.96,VALID,0,INVALID,128.036,VALID,0.112112,VALID,24.1793,VALID,153,VALID,0,
2014-12-04, 00:38:04,VALID,1010.95,VALID,0,INVALID,128.136,VALID,0,VALID,24.1988,VALID,153,VALID,0,
2014-12-04, 00:39:04,VALID,1010.94,VALID,0,INVALID,128.54,VALID,0.112112,VALID,24.2378,VALID,153,VALID,0,
2014-12-04, 00:40:04,VALID,1010.91,VALID,0,INVALID,128.875,VALID,0.112112,VALID,24.2768,VALID,153,VALID,0,
2014-12-04, 00:41:04,VALID,1010.94,VALID,0,INVALID,129.234,VALID,0.112112,VALID,24.2749,VALID,153,VALID,0,
2014-12-04, 00:42:04,VALID,1010.87,VALID,0,INVALID,129.241,VALID,0.112112,VALID,24.3158,VALID,153,VALID,0,
2014-12-04, 00:43:04,VALID,1010.87,VALID,0,INVALID,129.218,VALID,0.112112,VALID,24.3352,VALID,153,VALID,0,
2014-12-04, 00:44:04,VALID,1010.88,VALID,0,INVALID,129.135,VALID,0.112112,VALID,24.3547,VALID,153,VALID,0,
2014-12-04, 00:45:04,VALID,1010.84,VALID,0,INVALID,128.906,VALID,0,VALID,24.3566,VALID,153,VALID,0,
2014-12-04, 00:46:04,VALID,1010.81,VALID,0,INVALID,128.547,VALID,0,VALID,24.3974,VALID,153,VALID,0,
2014-12-04, 00:47:04,VALID,1010.78,VALID,0,INVALID,127.724,VALID,0,VALID,24.3956,VALID,153,VALID,0,
2014-12-04, 00:48:04,VALID,1010.78,VALID,0,INVALID,126.404,VALID,0,VALID,24.415,VALID,153,VALID,0,
2014-12-04, 00:49:04,VALID,1010.75,VALID,0,INVALID,123.644,VALID,0,VALID,24.4364,VALID,153,VALID,0,
2014-12-04, 00:50:04,VALID,1010.74,VALID,0,INVALID,119.991,VALID,0,VALID,24.4345,VALID,153,VALID,0,
2014-12-04, 00:51:04,VALID,1010.72,VALID,0,INVALID,116.354,VALID,0,VALID,24.4735,VALID,153,VALID,0,
2014-12-04, 00:52:04,VALID,1010.73,VALID,0,INVALID,112.175,VALID,0,VALID,24.4735,VALID,153,VALID,0,
2014-12-04, 00:53:04,VALID,1010.71,VALID,0,INVALID,109.155,VALID,0,VALID,24.5125,VALID,153,VALID,0,
2014-12-04, 00:54:04,VALID,1010.73,VALID,0,VALID,104,VALID,0,VALID,24.532,VALID,153,VALID,0,
2014-12-04, 00:55:04,VALID,1010.71,VALID,0,VALID,104,VALID,0,VALID,24.5515,VALID,153,VALID,0,
2014-12-04, 00:56:04,VALID,1010.71,VALID,0,VALID,104,VALID,0,VALID,24.5515,VALID,153,VALID,0,
2014-12-04, 00:57:04,VALID,1010.72,VALID,0,VALID,102.727,VALID,0,VALID,24.5923,VALID,153,VALID,0,
2014-12-04, 00:58:04,VALID,1010.69,VALID,0,VALID,101.918,VALID,0,VALID,24.5515,VALID,153,VALID,0,
2014-12-04, 00:59:04,VALID,1010.69,VALID,0,VALID,101.895,VALID,0,VALID,24.5923,VALID,153,VALID,0,
2014-12-04, 01:00:04,VALID,1010.65,VALID,0,VALID,101.933,VALID,0,VALID,24.5923,VALID,153,VALID,0,
2014-12-04, 01:01:04,VALID,1010.65,VALID,0,VALID,101.933,VALID,0,VALID,24.5515,VALID,153,VALID,0,
2014-12-04, 01:02:04,VALID,1010.64,VALID,0,VALID,102.109,VALID,0,VALID,24.5515,VALID,153,VALID,0,
2014-12-04, 01:03:04,VALID,1010.63,VALID,0,VALID,102.566,VALID,0,VALID,24.5515,VALID,153,VALID,0,
2014-12-04, 01:04:04,VALID,1010.63,VALID,0,VALID,102.742,VALID,0,VALID,24.5515,VALID,153,VALID,0,
2014-12-04, 01:05:04,VALID,1010.6,VALID,0,VALID,102.727,VALID,0,VALID,24.571,VALID,153,VALID,0,
2014-12-04, 01:06:04,VALID,1010.6,VALID,0,VALID,102.315,VALID,0,VALID,24.571,VALID,153,VALID,0,
2014-12-04, 01:07:04,VALID,1010.6,VALID,0,VALID,101.811,VALID,0,VALID,24.571,VALID,153,VALID,0,
2014-12-04, 01:08:04,VALID,1010.59,VALID,0,VALID,101.011,VALID,0,VALID,24.571,VALID,153,VALID,0,
2014-12-04, 01:09:04,VALID,1010.58,VALID,0,VALID,100.225,VALID,0,VALID,24.5905,VALID,153,VALID,0,
2014-12-04, 01:10:04,VALID,1010.6,VALID,0,VALID,99.7144,VALID,0,VALID,24.5923,VALID,153,VALID,0,
2014-12-04, 01:11:04,VALID,1010.64,VALID,0,VALID,99.2339,VALID,0,VALID,24.571,VALID,153,VALID,0,
2014-12-04, 01:12:04,VALID,1010.63,VALID,0,VALID,99.1424,VALID,0,VALID,24.5905,VALID,153,VALID,0,
2014-12-04, 01:13:04,VALID,1010.62,VALID,0,VALID,98.8526,VALID,0,VALID,24.571,VALID,153,VALID,0,
2014-12-04, 01:14:04,VALID,1010.58,VALID,0,VALID,98.8755,VALID,0,VALID,24.5905,VALID,153,VALID,0,
2014-12-04, 01:15:04,VALID,1010.58,VALID,0,VALID,98.662,VALID,0,VALID,24.5905,VALID,153,VALID,0,
2014-12-04, 01:16:04,VALID,1010.56,VALID,0,VALID,99.1577,VALID,0,VALID,24.6099,VALID,153,VALID,0,
2014-12-04, 01:17:04,VALID,1010.56,VALID,0,VALID,99.0814,VALID,0,VALID,24.5905,VALID,153,VALID,0,
2014-12-04, 01:18:04,VALID,1010.55,VALID,0,VALID,98.1434,VALID,0,VALID,24.6118,VALID,153,VALID,0,
2014-12-04, 01:19:04,VALID,1010.54,VALID,0,VALID,97.5791,VALID,0,VALID,24.5905,VALID,153,VALID,0,
2014-12-04, 01:20:04,VALID,1010.53,VALID,0,VALID,96.8166,VALID,0,VALID,24.6099,VALID,153,VALID,0,
2014-12-04, 01:21:04,VALID,1010.51,VALID,0,VALID,95.9777,VALID,0,VALID,24.6118,VALID,153,VALID,0,
2014-12-04, 01:22:04,VALID,1010.49,VALID,0,VALID,94.9406,VALID,0,VALID,24.6099,VALID,153,VALID,0,
2014-12-04, 01:23:04,VALID,1010.46,VALID,0,VALID,94.5593,VALID,0,VALID,24.6099,VALID,153,VALID,0,
2014-12-04, 01:24:04,VALID,1010.46,VALID,0,VALID,93.7053,VALID,0,VALID,24.5905,VALID,153,VALID,0,
2014-12-04, 01:25:04,VALID,1010.47,VALID,0,VALID,93.5222,VALID,0,VALID,24.6313,VALID,153,VALID,0,
2014-12-04, 01:26:04,VALID,1010.44,VALID,0,VALID,93.3163,VALID,0,VALID,24.6099,VALID,153,VALID,0,
2014-12-04, 01:27:04,VALID,1010.43,VALID,0,VALID,93.4612,VALID,0,VALID,24.6099,VALID,153,VALID,0,
2014-12-04, 01:28:04,VALID,1010.44,VALID,0,VALID,93.3773,VALID,0,VALID,24.6313,VALID,153,VALID,0,
2014-12-04, 01:29:04,VALID,1010.42,VALID,0,VALID,93.751,VALID,0,VALID,24.6099,VALID,153,VALID,0,
2014-12-04, 01:30:04,VALID,1010.4,VALID,0,VALID,93.3545,VALID,0,VALID,24.6099,VALID,153,VALID,0,
2014-12-04, 01:31:04,VALID,1010.38,VALID,0,VALID,93.4612,VALID,0,VALID,24.5905,VALID,153,VALID,0,
2014-12-04, 01:32:04,VALID,1010.33,VALID,0,VALID,93.3087,VALID,0,VALID,24.6118,VALID,153,VALID,0,
2014-12-04, 01:33:04,VALID,1010.31,VALID,0,VALID,93.5222,VALID,0,VALID,24.5905,VALID,153,VALID,0,
2014-12-04, 01:34:04,VALID,1010.31,VALID,0,VALID,93.2935,VALID,0,VALID,24.6118,VALID,153,VALID,0,
2014-12-04, 01:35:04,VALID,1010.27,VALID,0,VALID,93.8578,VALID,0,VALID,24.571,VALID,153,VALID,0,
2014-12-04, 01:36:04,VALID,1010.26,VALID,0,VALID,93.385,VALID,0,VALID,24.571,VALID,153,VALID,0,
2014-12-04, 01:37:04,VALID,1010.26,VALID,0,VALID,93.2706,VALID,0,VALID,24.5515,VALID,153,VALID,0,
2014-12-04, 01:38:04,VALID,1010.24,VALID,0,VALID,93.5985,VALID,0,VALID,24.5728,VALID,153,VALID,0,
2014-12-04, 01:39:04,VALID,1010.21,VALID,0,VALID,93.7739,VALID,0,VALID,24.532,VALID,153,VALID,0,
2014-12-04, 01:40:04,VALID,1010.21,VALID,0,VALID,94.3306,VALID,0,VALID,24.5533,VALID,153,VALID,0,
2014-12-04, 01:41:04,VALID,1010.17,VALID,0,VALID,94.1247,VALID,0,VALID,24.5125,VALID,153,VALID,0,
2014-12-04, 01:42:04,VALID,1010.13,VALID,0,VALID,93.5756,VALID,0,VALID,24.532,VALID,153,VALID,0,
2014-12-04, 01:43:04,VALID,1010.12,VALID,0,VALID,93.3621,VALID,0,VALID,24.5125,VALID,153,VALID,0,
2014-12-04, 01:44:04,VALID,1010.12,VALID,0,VALID,93.324,VALID,0,VALID,24.5515,VALID,153,VALID,0,
2014-12-04, 01:45:04,VALID,1010.11,VALID,0,VALID,92.8817,VALID,0,VALID,24.532,VALID,153,VALID,0,
2014-12-04, 01:46:04,VALID,1010.11,VALID,0,VALID,92.4013,VALID,0,VALID,24.5533,VALID,153,VALID,0,
2014-12-04, 01:47:04,VALID,1010.08,VALID,0,VALID,91.9208,VALID,0,VALID,24.5728,VALID,153,VALID,0,
2014-12-04, 01:48:04,VALID,1010.07,VALID,0,VALID,91.837,VALID,0,VALID,24.571,VALID,153,VALID,0,
2014-12-04, 01:49:04,VALID,1010.06,VALID,0,VALID,91.3794,VALID,0,VALID,24.6118,VALID,153,VALID,0,
2014-12-04, 01:50:04,VALID,1010.04,VALID,0,VALID,90.9676,VALID,0,VALID,24.571,VALID,153,VALID,0,
2014-12-04, 01:51:04,VALID,1010.06,VALID,0,VALID,90.7846,VALID,0,VALID,24.5905,VALID,153,VALID,0,
2014-12-04, 01:52:04,VALID,1010.03,VALID,0,VALID,90.6321,VALID,0,VALID,24.6099,VALID,153,VALID,0,
2014-12-04, 01:53:04,VALID,1010.04,VALID,0,VALID,90.5329,VALID,0,VALID,24.6508,VALID,153,VALID,0,
2014-12-04, 01:54:04,VALID,1010.05,VALID,0,VALID,90.5482,VALID,0,VALID,24.6703,VALID,153,VALID,0,
2014-12-04, 01:55:04,VALID,1010.05,VALID,0,VALID,90.4567,VALID,0,VALID,24.6489,VALID,153,VALID,0,
2014-12-04, 01:56:04,VALID,1010.01,VALID,0,VALID,89.9686,VALID,0,VALID,24.6489,VALID,153,VALID,0,
2014-12-04, 01:57:04,VALID,1010.01,VALID,0,VALID,89.7399,VALID,0,VALID,24.6898,VALID,153,VALID,0,
2014-12-04, 01:58:04,VALID,1010,VALID,0,VALID,89.2594,VALID,0,VALID,24.6684,VALID,153,VALID,0,
2014-12-04, 01:59:04,VALID,1010.02,VALID,0,VALID,88.9163,VALID,0,VALID,24.6879,VALID,153,VALID,0,
2014-12-04, 02:00:04,VALID,1010.03,VALID,0,VALID,89.1222,VALID,0,VALID,24.6879,VALID,153,VALID,0,
2014-12-04, 02:01:04,VALID,1010.07,VALID,0,VALID,89.1603,VALID,0,VALID,24.7093,VALID,153,VALID,0,
2014-12-04, 02:02:04,VALID,1010.06,VALID,0,VALID,89.0002,VALID,0,VALID,24.6879,VALID,143,VALID,0,
2014-12-04, 02:03:04,VALID,1010.12,VALID,0,VALID,88.9773,VALID,0,VALID,24.7093,VALID,143,VALID,0,
2014-12-04, 02:04:04,VALID,1010.14,VALID,0,VALID,89.0764,VALID,0,VALID,24.6879,VALID,143,VALID,0,
2014-12-04, 02:05:04,VALID,1010.15,VALID,0,VALID,89.4043,VALID,0,VALID,24.6879,VALID,143,VALID,0,
2014-12-04, 02:06:04,VALID,1010.15,VALID,0,VALID,89.3586,VALID,0,VALID,24.6684,VALID,143,VALID,0,
2014-12-04, 02:07:04,VALID,1010.12,VALID,0,VALID,89.3738,VALID,0,VALID,24.6489,VALID,143,VALID,0,
2014-12-04, 02:08:04,VALID,1010.12,VALID,0,VALID,89.3204,VALID,0,VALID,24.6489,VALID,143,VALID,0,
2014-12-04, 02:09:04,VALID,1010.1,VALID,0,VALID,89.2976,VALID,0,VALID,24.6294,VALID,143,VALID,0,
2014-12-04, 02:10:04,VALID,1010.11,VALID,0,VALID,89.4653,VALID,0,VALID,24.6294,VALID,143,VALID,0,
2014-12-04, 02:11:04,VALID,1010.06,VALID,0,VALID,89.5721,VALID,0,VALID,24.6099,VALID,143,VALID,0,
2014-12-04, 02:12:04,VALID,1010.08,VALID,0,VALID,89.2976,VALID,0,VALID,24.5905,VALID,143,VALID,0,
2014-12-04, 02:13:04,VALID,1010.1,VALID,0,VALID,89.7627,VALID,0,VALID,24.6099,VALID,143,VALID,0,
2014-12-04, 02:14:04,VALID,1010.05,VALID,0,VALID,89.9,VALID,0,VALID,24.5905,VALID,143,VALID,0,
2014-12-04, 02:15:04,VALID,1010.06,VALID,0,VALID,89.9381,VALID,0,VALID,24.5905,VALID,143,VALID,0,
2014-12-04, 02:16:04,VALID,1010.07,VALID,0,VALID,90.1593,VALID,0,VALID,24.571,VALID,143,VALID,0,
2014-12-04, 02:17:04,VALID,1010.05,VALID,0,VALID,90.6321,VALID,0,VALID,24.571,VALID,143,VALID,0,
2014-12-04, 02:18:04,VALID,1010.08,VALID,0,VALID,91.0286,VALID,0,VALID,24.5728,VALID,143,VALID,0,
2014-12-04, 02:19:04,VALID,1010.08,VALID,0,VALID,91.4175,VALID,0,VALID,24.532,VALID,143,VALID,0,
2014-12-04, 02:20:04,VALID,1010.06,VALID,0,VALID,91.7683,VALID,0,VALID,24.532,VALID,143,VALID,0,
2014-12-04, 02:21:04,VALID,1010.04,VALID,0,VALID,91.5472,VALID,0,VALID,24.5338,VALID,143,VALID,0,
2014-12-04, 02:22:04,VALID,1010.05,VALID,0,VALID,91.4099,VALID,0,VALID,24.5125,VALID,143,VALID,0,
2014-12-04, 02:23:04,VALID,1010.06,VALID,0,VALID,91.3794,VALID,0,VALID,24.5125,VALID,143,VALID,0,
2014-12-04, 02:24:04,VALID,1010.07,VALID,0,VALID,91.2345,VALID,0,VALID,24.5144,VALID,143,VALID,0,
2014-12-04, 02:25:04,VALID,1010.09,VALID,0,VALID,91.5319,VALID,0,VALID,24.5338,VALID,144,VALID,0,
2014-12-04, 02:26:04,VALID,1010.09,VALID,0,VALID,91.837,VALID,0,VALID,24.5338,VALID,143,VALID,0,
2014-12-04, 02:27:04,VALID,1010.07,VALID,0,VALID,91.7531,VALID,0,VALID,24.5144,VALID,143,VALID,0,
2014-12-04, 02:28:04,VALID,1010.03,VALID,0,VALID,91.9437,VALID,0,VALID,24.5125,VALID,143,VALID,0,
2014-12-04, 02:29:04,VALID,1010.03,VALID,0,VALID,92.1191,VALID,0,VALID,24.5144,VALID,143,VALID,0,
2014-12-04, 02:30:04,VALID,1009.99,VALID,0,VALID,92.6148,VALID,0,VALID,24.493,VALID,143,VALID,0,
2014-12-04, 02:31:04,VALID,1009.99,VALID,0,VALID,93.2096,VALID,0,VALID,24.5144,VALID,143,VALID,0,
2014-12-04, 02:32:04,VALID,1009.98,VALID,0,VALID,92.9884,VALID,0,VALID,24.4949,VALID,143,VALID,0,
2014-12-04, 02:33:04,VALID,1009.92,VALID,0,VALID,93.1181,VALID,0,VALID,24.4735,VALID,143,VALID,0,
2014-12-04, 02:34:04,VALID,1009.92,VALID,0,VALID,93.934,VALID,0,VALID,24.4754,VALID,143,VALID,0,
2014-12-04, 02:35:04,VALID,1009.93,VALID,0,VALID,95.1008,VALID,0,VALID,24.454,VALID,143,VALID,0,
2014-12-04, 02:36:04,VALID,1009.92,VALID,0,VALID,95.3677,VALID,0,VALID,24.4345,VALID,99,VALID,0,
2014-12-04, 02:37:04,VALID,1009.92,VALID,0,VALID,95.8862,VALID,0,VALID,24.415,VALID,98,VALID,0,
2014-12-04, 02:38:04,VALID,1009.91,VALID,0,VALID,95.4592,VALID,0,VALID,24.3956,VALID,100,VALID,0,
2014-12-04, 02:39:04,VALID,1009.9,VALID,0,VALID,95.116,VALID,0,VALID,24.415,VALID,101,VALID,0,
2014-12-04, 02:40:04,VALID,1009.9,VALID,0,VALID,95.0703,VALID,0,VALID,24.3956,VALID,101,VALID,0,
2014-12-04, 02:41:04,VALID,1009.91,VALID,0,VALID,95.6727,VALID,0,VALID,24.3956,VALID,103,VALID,0,
2014-12-04, 02:42:04,VALID,1009.89,VALID,0,VALID,96.176,VALID,0,VALID,24.3761,VALID,119,VALID,0,
2014-12-04, 02:43:04,VALID,1009.91,VALID,0,VALID,96.2446,VALID,0,VALID,24.3566,VALID,111,VALID,0,
2014-12-04, 02:44:04,VALID,1009.89,VALID,0,VALID,96.1074,VALID,0,VALID,24.3389,VALID,119,VALID,0,
2014-12-04, 02:45:04,VALID,1009.87,VALID,0,VALID,96.8166,VALID,0,VALID,24.3176,VALID,110,VALID,0,
2014-12-04, 02:46:04,VALID,1009.85,VALID,0,VALID,97.785,VALID,0,VALID,24.2981,VALID,110,VALID,0,
2014-12-04, 02:47:04,VALID,1009.84,VALID,0,VALID,98.906,VALID,0,VALID,24.2786,VALID,110,VALID,0,
2014-12-04, 02:48:04,VALID,1009.84,VALID,0,VALID,99.6762,VALID,0,VALID,24.2591,VALID,110,VALID,0,
2014-12-04, 02:49:04,VALID,1009.79,VALID,0,VALID,100.08,VALID,0,VALID,24.2396,VALID,130,VALID,0,
2014-12-04, 02:50:04,VALID,1009.8,VALID,0,VALID,101.102,VALID,0,VALID,24.2415,VALID,133,VALID,0,
2014-12-04, 02:51:04,VALID,1009.78,VALID,0,VALID,102.071,VALID,0,VALID,24.2415,VALID,133,VALID,0,
2014-12-04, 02:52:04,VALID,1009.76,VALID,0,VALID,103.352,VALID,0,VALID,24.2415,VALID,133,VALID,0,
2014-12-04, 02:53:04,VALID,1009.72,VALID,0,VALID,103.779,VALID,0,VALID,24.2007,VALID,128,VALID,0,
2014-12-04, 02:54:04,VALID,1009.71,VALID,0,VALID,103.962,VALID,0,VALID,24.2025,VALID,90,VALID,0,
2014-12-04, 02:55:04,VALID,1009.69,VALID,0,VALID,104,VALID,0,VALID,24.1812,VALID,91,VALID,0,
2014-12-04, 02:56:04,VALID,1009.66,VALID,0,VALID,104,VALID,0,VALID,24.1617,VALID,91,VALID,0,
2014-12-04, 02:57:04,VALID,1009.63,VALID,0,VALID,104,VALID,0,VALID,24.1617,VALID,91,VALID,0,
2014-12-04, 02:58:04,VALID,1009.63,VALID,0,VALID,104,VALID,0,VALID,24.1617,VALID,91,VALID,0,
2014-12-04, 02:59:04,VALID,1009.65,VALID,0,VALID,104,VALID,0,VALID,24.1422,VALID,91,VALID,0,
2014-12-04, 03:00:04,VALID,1009.62,VALID,0,VALID,104,VALID,0,VALID,24.1032,VALID,121,VALID,0,
2014-12-04, 03:01:04,VALID,1009.64,VALID,0,VALID,104,VALID,0,VALID,24.1032,VALID,121,VALID,0,
2014-12-04, 03:02:04,VALID,1009.58,VALID,0,VALID,104,VALID,0,VALID,24.0837,VALID,106,VALID,0,
2014-12-04, 03:03:04,VALID,1009.61,VALID,0,VALID,104,VALID,0,VALID,24.1051,VALID,123,VALID,0,
2014-12-04, 03:04:04,VALID,1009.6,VALID,0,VALID,104,VALID,0,VALID,24.0856,VALID,123,VALID,0,
2014-12-04, 03:05:04,VALID,1009.59,VALID,0,VALID,104,VALID,0,VALID,24.0643,VALID,123,VALID,0,
2014-12-04, 03:06:04,VALID,1009.6,VALID,0,VALID,104,VALID,0,VALID,24.0643,VALID,123,VALID,0,
2014-12-04, 03:07:04,VALID,1009.56,VALID,0,VALID,104,VALID,0,VALID,24.0448,VALID,114,VALID,0,
2014-12-04, 03:08:04,VALID,1009.56,VALID,0,VALID,104,VALID,0,VALID,24.0643,VALID,113,VALID,0,
2014-12-04, 03:09:04,VALID,1009.54,VALID,0,VALID,104,VALID,0,VALID,24.0448,VALID,107,VALID,0,
2014-12-04, 03:10:04,VALID,1009.51,VALID,0,VALID,104,VALID,0,VALID,24.0448,VALID,96,VALID,0,
2014-12-04, 03:11:04,VALID,1009.54,VALID,0,VALID,104,VALID,0,VALID,24.0448,VALID,110,VALID,0,
2014-12-04, 03:12:04,VALID,1009.51,VALID,0,VALID,104,VALID,0,VALID,24.0448,VALID,112,VALID,0,
2014-12-04, 03:13:04,VALID,1009.53,VALID,0,VALID,104,VALID,0,VALID,24.0253,VALID,112,VALID,0,
2014-12-04, 03:14:04,VALID,1009.53,VALID,0,INVALID,109.186,VALID,0,VALID,24.0253,VALID,112,VALID,0,
2014-12-04, 03:15:04,VALID,1009.55,VALID,0,INVALID,109.552,VALID,0,VALID,24.0253,VALID,112,VALID,0,
2014-12-04, 03:16:04,VALID,1009.56,VALID,0,INVALID,110.169,VALID,0,VALID,24.0271,VALID,105,VALID,0,
2014-12-04, 03:17:04,VALID,1009.55,VALID,0,INVALID,110.901,VALID,0,VALID,24.0058,VALID,107,VALID,0,
2014-12-04, 03:18:04,VALID,1009.57,VALID,0,INVALID,111.244,VALID,0,VALID,23.9863,VALID,107,VALID,0,
2014-12-04, 03:19:04,VALID,1009.53,VALID,0,INVALID,111.572,VALID,0,VALID,24.0058,VALID,111,VALID,0,
2014-12-04, 03:20:04,VALID,1009.54,VALID,0,INVALID,111.999,VALID,0,VALID,23.9863,VALID,111,VALID,0,
2014-12-04, 03:21:04,VALID,1009.55,VALID,0,INVALID,112.518,VALID,0,VALID,23.9863,VALID,111,VALID,0,
2014-12-04, 03:22:04,VALID,1009.55,VALID,0,INVALID,112.815,VALID,0,VALID,23.9863,VALID,111,VALID,0,
2014-12-04, 03:23:04,VALID,1009.54,VALID,0,INVALID,112.671,VALID,0,VALID,23.9863,VALID,111,VALID,0,
2014-12-04, 03:24:04,VALID,1009.55,VALID,0,INVALID,112.968,VALID,0,VALID,23.9863,VALID,111,VALID,0,
2014-12-04, 03:25:04,VALID,1009.54,VALID,0,INVALID,113.54,VALID,0,VALID,23.9863,VALID,111,VALID,0,
2014-12-04, 03:26:04,VALID,1009.56,VALID,0,INVALID,113.875,VALID,0,VALID,23.9863,VALID,111,VALID,0,
2014-12-04, 03:27:04,VALID,1009.59,VALID,0,INVALID,114.447,VALID,0,VALID,23.9863,VALID,111,VALID,0,
2014-12-04, 03:28:04,VALID,1009.58,VALID,0,INVALID,114.912,VALID,0,VALID,23.9863,VALID,111,VALID,0,
2014-12-04, 03:29:04,VALID,1009.61,VALID,0,INVALID,115.454,VALID,0,VALID,23.9881,VALID,111,VALID,0,
2014-12-04, 03:30:04,VALID,1009.63,VALID,0,INVALID,115.698,VALID,0,VALID,23.9863,VALID,111,VALID,0,
2014-12-04, 03:31:04,VALID,1009.66,VALID,0,INVALID,116.026,VALID,0,VALID,23.9881,VALID,111,VALID,0,
2014-12-04, 03:32:04,VALID,1009.64,VALID,0,INVALID,116.262,VALID,0,VALID,23.9668,VALID,111,VALID,0,
2014-12-04, 03:33:04,VALID,1009.69,VALID,0,INVALID,116.453,VALID,0,VALID,23.9668,VALID,111,VALID,0,
2014-12-04, 03:34:04,VALID,1009.69,VALID,0,INVALID,117.162,VALID,0,VALID,23.9863,VALID,111,VALID,0,
2014-12-04, 03:35:04,VALID,1009.73,VALID,0,INVALID,117.452,VALID,0,VALID,23.9455,VALID,111,VALID,0,
2014-12-04, 03:36:04,VALID,1009.74,VALID,0,INVALID,117.97,VALID,0,VALID,23.9668,VALID,111,VALID,0,
2014-12-04, 03:37:04,VALID,1009.75,VALID,0,INVALID,118.489,VALID,0,VALID,23.9668,VALID,111,VALID,0,
2014-12-04, 03:38:04,VALID,1009.73,VALID,0,INVALID,118.824,VALID,0,VALID,23.9473,VALID,111,VALID,0,
2014-12-04, 03:39:04,VALID,1009.73,VALID,0,INVALID,119.053,VALID,0,VALID,23.9473,VALID,111,VALID,0,
2014-12-04, 03:40:04,VALID,1009.73,VALID,0,INVALID,119.396,VALID,0,VALID,23.9278,VALID,111,VALID,0,
2014-12-04, 03:41:04,VALID,1009.71,VALID,0,INVALID,120.266,VALID,0,VALID,23.9491,VALID,111,VALID,0,
2014-12-04, 03:42:04,VALID,1009.73,VALID,0,INVALID,121.227,VALID,0,VALID,23.9278,VALID,111,VALID,0,
2014-12-04, 03:43:04,VALID,1009.76,VALID,0,INVALID,122.332,VALID,0,VALID,23.9278,VALID,111,VALID,0,
2014-12-04, 03:44:04,VALID,1009.77,VALID,0,INVALID,123.057,VALID,0.112112,VALID,23.8871,VALID,111,VALID,0,
2014-12-04, 03:45:04,VALID,1009.79,VALID,0,INVALID,123.735,VALID,0,VALID,23.8871,VALID,111,VALID,0,
2014-12-04, 03:46:04,VALID,1009.8,VALID,0,INVALID,124.239,VALID,0,VALID,23.9084,VALID,111,VALID,0,
2014-12-04, 03:47:04,VALID,1009.81,VALID,0,INVALID,124.506,VALID,0,VALID,23.8889,VALID,111,VALID,0,
2014-12-04, 03:48:04,VALID,1009.79,VALID,0,INVALID,124.978,VALID,0,VALID,23.8889,VALID,111,VALID,0,
2014-12-04, 03:49:04,VALID,1009.8,VALID,0,INVALID,125.184,VALID,0,VALID,23.8694,VALID,111,VALID,0,
2014-12-04, 03:50:04,VALID,1009.81,VALID,0,INVALID,125.39,VALID,0,VALID,23.8694,VALID,111,VALID,0,
2014-12-04, 03:51:04,VALID,1009.81,VALID,0,INVALID,125.718,VALID,0,VALID,23.8889,VALID,111,VALID,0,
2014-12-04, 03:52:04,VALID,1009.82,VALID,0,INVALID,126.16,VALID,0,VALID,23.8499,VALID,111,VALID,0,
2014-12-04, 03:53:04,VALID,1009.76,VALID,0,INVALID,126.206,VALID,0,VALID,23.8499,VALID,111,VALID,0,
2014-12-04, 03:54:04,VALID,1009.77,VALID,0,INVALID,126.725,VALID,0,VALID,23.8091,VALID,111,VALID,0,
2014-12-04, 03:55:04,VALID,1009.8,VALID,0,INVALID,126.976,VALID,0,VALID,23.8109,VALID,111,VALID,0,
2014-12-04, 03:56:04,VALID,1009.8,VALID,0,INVALID,127.457,VALID,0,VALID,23.8109,VALID,111,VALID,0,